Lumberton, NC

3:05 AM EDT on May 24, 2018 (GMT -0400)
Lumberton Municipal

Weather History for KLBT - November, 2013

Change the Weather History Date:

Thursday, November 7, 2013

  Actual Average Record
Temperature  
Mean Temperature 63 °F 57 °F  
Max Temperature 75 °F 70 °F 80 °F (2005)
Min Temperature 50 °F 44 °F 28 °F (1998)
Degree Days  
Heating Degree Days 2 9  
Month to date heating degree days 46 58  
Since 1 July heating degree days 150 190  
Cooling Degree Days 0 1  
Month to date cooling degree days 9 7  
Year to date cooling degree days 1856 1901  
Growing Degree Days 14 (Base 50)    
Moisture  
Dew Point 61 °F    
Average Humidity 75    
Maximum Humidity 100    
Minimum Humidity 50    
Precipitation  
Precipitation 0.20 in 0.09 in 2.01 in (2006)
Month to date precipitation 0.57 0.58  
Year to date precipitation 38.30 38.34  
Sea Level Pressure  
Sea Level Pressure 30.01 in    
Wind  
Wind Speed 5 mph (WNW)    
Max Wind Speed 16 mph    
Max Gust Speed 24 mph    
Visibility 5 miles    
Events Rain    
T = Trace of Precipitation, MM = Missing Value Source: NWS Daily Summary

Daily Weather History Graph

Daily Weather History Graph

Search for Another Location

Airport or City:

Astronomy

Nov. 07, 2013 Rise Set
Actual Time 6:42 AM EST 5:16 PM EST
Civil Twilight 6:16 AM EST 5:43 PM EST
Nautical Twilight 5:46 AM EST 6:13 PM EST
Astronomical Twilight 5:16 AM EST 6:42 PM EST
Moon 10:47 AM EST (11/7) 9:28 PM EST (11/7)
Length of Visible Light 11h 27m
Length of Day
10h 34m
Waxing Crescent, 22% of the Moon is Illuminated
Nov 7
Waxing Crescent
Nov 10
First Quarter
Nov 17
Full
Nov 25
Last Quarter
Dec 2
New

Hourly Weather History & Observations

Time (EST) Temp. Dew Point Humidity Pressure Visibility Wind Dir Wind Speed Gust Speed Precip Events Conditions
12:54 AM 64.0 °F 63.0 °F 96% 30.10 in 4.0 mi Calm Calm - 0.00 in   Overcast
1:17 AM 64.4 °F 62.6 °F 94% 30.09 in 2.5 mi Calm Calm - N/A   Overcast
1:33 AM 64.4 °F 62.6 °F 94% 30.08 in 3.0 mi East 3.5 mph - 0.02 in Rain Light Rain
1:54 AM 64.0 °F 64.0 °F 100% 30.07 in 2.5 mi Calm Calm - 0.02 in Rain Light Rain
2:29 AM 64.4 °F 62.6 °F 94% 30.07 in 1.5 mi Calm Calm - 0.03 in Rain Light Rain
2:38 AM 64.4 °F 62.6 °F 94% 30.06 in 1.8 mi Calm Calm - 0.04 in Rain Light Rain
2:47 AM 64.4 °F 62.6 °F 94% 30.06 in 2.0 mi Calm Calm - 0.05 in Rain Light Rain
2:54 AM 64.0 °F 63.0 °F 96% 30.05 in 1.8 mi Calm Calm - 0.06 in Rain Light Rain
3:04 AM 64.4 °F 62.6 °F 94% 30.05 in 2.0 mi Calm Calm - 0.01 in Rain Light Rain
3:13 AM 64.4 °F 62.6 °F 94% 30.04 in 2.5 mi Calm Calm - 0.01 in Rain Light Rain
3:42 AM 64.4 °F 62.6 °F 94% 30.03 in 2.5 mi Calm Calm - 0.02 in   Overcast
3:54 AM 64.0 °F 63.0 °F 96% 30.03 in 2.0 mi Calm Calm - 0.03 in Rain Light Rain
4:04 AM 64.4 °F 62.6 °F 94% 30.02 in 1.8 mi Calm Calm - 0.00 in Rain Light Rain
4:18 AM 64.4 °F 62.6 °F 94% 30.02 in 1.8 mi Calm Calm - 0.01 in Rain Light Rain
4:31 AM 64.4 °F 62.6 °F 94% 30.01 in 1.5 mi Calm Calm - 0.05 in Rain Rain
4:41 AM 64.4 °F 62.6 °F 94% 30.01 in 2.0 mi Calm Calm - 0.06 in Rain Light Rain
4:51 AM 64.4 °F 62.6 °F 94% 30.01 in 3.0 mi Calm Calm - 0.06 in Rain Light Rain
4:54 AM 64.0 °F 63.0 °F 96% 30.01 in 2.5 mi Calm Calm - 0.07 in Rain Light Rain
5:20 AM 64.4 °F 62.6 °F 94% 30.00 in 1.8 mi Calm Calm - 0.01 in Rain Light Rain
5:27 AM 64.4 °F 62.6 °F 94% 30.00 in 2.5 mi Calm Calm - 0.01 in Rain Light Rain
5:54 AM 63.0 °F 63.0 °F 100% 29.99 in 2.5 mi East 3.5 mph - 0.02 in Rain Light Rain
6:01 AM 64.4 °F 62.6 °F 94% 30.00 in 4.0 mi Calm Calm - 0.00 in   Overcast
6:08 AM 64.4 °F 62.6 °F 94% 30.00 in 7.0 mi Calm Calm - 0.00 in   Overcast
6:27 AM 62.6 °F 62.6 °F 100% 30.00 in 6.0 mi Calm Calm - 0.00 in   Overcast
6:38 AM 62.6 °F 62.6 °F 100% 30.00 in 5.0 mi Calm Calm - 0.00 in   Overcast
6:47 AM 62.6 °F 62.6 °F 100% 30.00 in 4.0 mi Calm Calm - 0.00 in   Overcast
6:54 AM 63.0 °F 62.1 °F 97% 30.00 in 1.5 mi Calm Calm - 0.00 in   Overcast
7:02 AM 62.6 °F 62.6 °F 100% 30.00 in 1.0 mi Calm Calm - N/A   Overcast
7:05 AM 62.6 °F 62.6 °F 100% 30.00 in 1.8 mi Calm Calm - N/A   Overcast
7:10 AM 62.6 °F 62.6 °F 100% 30.01 in 2.5 mi WSW 4.6 mph - N/A   Overcast
7:14 AM 62.6 °F 62.6 °F 100% 30.00 in 3.0 mi SW 3.5 mph - N/A   Overcast
7:21 AM 62.6 °F 62.6 °F 100% 30.00 in 2.5 mi Calm Calm - N/A   Overcast
7:31 AM 62.6 °F 62.6 °F 100% 30.00 in 3.0 mi Calm Calm - N/A   Overcast
7:54 AM 63.0 °F 62.1 °F 97% 30.02 in 4.0 mi West 5.8 mph - N/A   Overcast
8:06 AM 62.6 °F 62.6 °F 100% 30.01 in 7.0 mi Calm Calm - N/A   Overcast
8:54 AM 64.9 °F 63.0 °F 93% 30.01 in 9.0 mi Calm Calm - N/A   Overcast
9:54 AM 64.9 °F 64.0 °F 97% 30.02 in 6.0 mi West 9.2 mph - N/A   Overcast
10:19 AM 66.2 °F 64.4 °F 94% 30.02 in 10.0 mi WSW 5.8 mph - N/A   Mostly Cloudy
10:31 AM 66.2 °F 64.4 °F 94% 30.01 in 10.0 mi WSW 4.6 mph - N/A   Mostly Cloudy
10:50 AM 68.0 °F 64.4 °F 88% 30.01 in 10.0 mi West 5.8 mph - N/A   Scattered Clouds
10:54 AM 68.0 °F 64.0 °F 87% 30.01 in 10.0 mi West 6.9 mph - N/A   Scattered Clouds
11:54 AM 71.1 °F 62.1 °F 73% 29.97 in 10.0 mi WSW 6.9 mph - N/A   Clear
12:54 PM 72.0 °F 61.0 °F 68% 29.94 in 10.0 mi West 6.9 mph - N/A   Clear
1:54 PM 75.0 °F 61.0 °F 62% 29.92 in 10.0 mi West 6.9 mph - N/A   Overcast
2:54 PM 72.0 °F 60.1 °F 66% 29.92 in 10.0 mi West 6.9 mph - N/A   Overcast
3:54 PM 68.0 °F 62.1 °F 81% 29.94 in 8.0 mi NW 10.4 mph - N/A   Overcast
4:54 PM 66.9 °F 62.1 °F 84% 29.95 in 10.0 mi North 8.1 mph - N/A   Overcast
5:54 PM 64.9 °F 62.1 °F 90% 29.97 in 10.0 mi NNW 3.5 mph - N/A   Overcast
6:54 PM 63.0 °F 60.1 °F 90% 29.99 in 8.0 mi NW 3.5 mph - N/A   Mostly Cloudy
7:54 PM 63.0 °F 55.9 °F 78% 30.01 in 10.0 mi North 6.9 mph - N/A   Clear
8:54 PM 60.1 °F 46.9 °F 62% 30.05 in 10.0 mi NNW 10.4 mph - N/A   Clear
9:54 PM 57.0 °F 41.0 °F 55% 30.06 in 10.0 mi North 8.1 mph - N/A   Clear
10:54 PM 54.0 °F 35.1 °F 49% 30.07 in 10.0 mi North 13.8 mph 24.2 mph N/A   Clear
11:54 PM 51.1 °F 34.0 °F 52% 30.09 in 10.0 mi North 8.1 mph - N/A   Clear